Caribbean Princess — ZCDG8 — position and weather

sailwx.info

Track history (hours):
 
Tides and Currents Weather Stations Pressure Air Temp Water Temp Dewpoint Dewpoint Depression Visibility Wind Speed Wind Dir Waves Ship Positions

Caribbean Princess

Operator: Princess Cruises

Last reported at 2014-Aug-28 23:18 UTC. Time now 2014-Aug-30 08:33 UTC.
Position N 26°12' W 079°24'.

Type: Passenger vessel. MMSI: 310423000.

Date/timePositionNaut miles runAvg speedWind from/ knotsBaromVisibWave heightAir tempDewpointWater temp
2014-Aug-28 23:18N 26°12' W 079°24'1318.0
2014-Aug-28 22:33N 26°10' W 079°38'1817.7
2014-Aug-28 21:33N 26°07' W 079°58'9 8.6
2014-Aug-28 20:33N 26°06' W 080°07'0 0.0
2014-Aug-28 19:25N 26°06' W 080°07'0 0.0
2014-Aug-28 18:28N 26°06' W 080°07'0 0.0
2014-Aug-28 17:28N 26°06' W 080°07'0 0.0
2014-Aug-28 16:28N 26°06' W 080°07'0 0.0
2014-Aug-28 15:28N 26°06' W 080°07'0 0.0
2014-Aug-28 14:31N 26°06' W 080°07'0 0.0
2014-Aug-28 13:31N 26°06' W 080°07'0 0.0
2014-Aug-28 12:31N 26°06' W 080°07'0 0.0
2014-Aug-28 11:31N 26°06' W 080°07'0 0.0
2014-Aug-28 10:31N 26°06' W 080°07'7 7.6
2014-Aug-28 09:34N 26°05' W 079°59'1717.1
2014-Aug-28 08:33N 25°48' W 079°53'2117.9
2014-Aug-28 07:22N 25°27' W 079°54'  
2014-Aug-26 01:00N 19°36' W 082°42'31 1.6 250 / 151012.710.8 0.529.823.630.0
2014-Aug-25 06:00N 19°06' W 082°48'43213.7 270 / 91009.010.8 1.029.026.230.0
2014-Aug-23 22:33N 25°44' W 079°48'1818.0
2014-Aug-23 21:33N 25°59' W 079°59'1010.0
2014-Aug-23 20:33N 26°06' W 080°07'0 0.0
2014-Aug-23 19:27N 26°06' W 080°07'88 5.5
2014-Aug-23 03:30N 26°07' W 078°29'47117.8
2014-Aug-22 01:00N 21°48' W 071°18'150 8.9 070 / 261017.310.8 0.528.025.230.0
2014-Aug-21 08:00N 20°30' W 069°00'   070 / 221016.010.8 1.028.023.730.0
Track history (hours):
 
Tides and Currents Weather Stations Pressure Air Temp Water Temp Dewpoint Dewpoint Depression Visibility Wind Speed Wind Dir Waves Ship Positions

Caribbean Princess

Operator: Princess Cruises

Last reported at 2014-Aug-28 23:18 UTC. Time now 2014-Aug-30 08:33 UTC.
Position N 26°12' W 079°24'.

Type: Passenger vessel. MMSI: 310423000.

Date/timePositionNaut miles runAvg speedWind from/ knotsBaromVisibWave heightAir tempDewpointWater temp
2014-Aug-28 23:18N 26°12' W 079°24'1318.0
2014-Aug-28 22:33N 26°10' W 079°38'1817.7
2014-Aug-28 21:33N 26°07' W 079°58'9 8.6
2014-Aug-28 20:33N 26°06' W 080°07'0 0.0
2014-Aug-28 19:25N 26°06' W 080°07'0 0.0
2014-Aug-28 18:28N 26°06' W 080°07'0 0.0
2014-Aug-28 17:28N 26°06' W 080°07'0 0.0
2014-Aug-28 16:28N 26°06' W 080°07'0 0.0
2014-Aug-28 15:28N 26°06' W 080°07'0 0.0
2014-Aug-28 14:31N 26°06' W 080°07'0 0.0
2014-Aug-28 13:31N 26°06' W 080°07'0 0.0
2014-Aug-28 12:31N 26°06' W 080°07'0 0.0
2014-Aug-28 11:31N 26°06' W 080°07'0 0.0
2014-Aug-28 10:31N 26°06' W 080°07'7 7.6
2014-Aug-28 09:34N 26°05' W 079°59'1717.1
2014-Aug-28 08:33N 25°48' W 079°53'2117.9
2014-Aug-28 07:22N 25°27' W 079°54'  
2014-Aug-26 01:00N 19°36' W 082°42'31 1.6 250 / 151012.710.8 0.529.823.630.0
2014-Aug-25 06:00N 19°06' W 082°48'43213.7 270 / 91009.010.8 1.029.026.230.0
2014-Aug-23 22:33N 25°44' W 079°48'1818.0
2014-Aug-23 21:33N 25°59' W 079°59'1010.0
2014-Aug-23 20:33N 26°06' W 080°07'0 0.0
2014-Aug-23 19:27N 26°06' W 080°07'88 5.5
2014-Aug-23 03:30N 26°07' W 078°29'47117.8
2014-Aug-22 01:00N 21°48' W 071°18'150 8.9 070 / 261017.310.8 0.528.025.230.0
2014-Aug-21 08:00N 20°30' W 069°00'   070 / 221016.010.8 1.028.023.730.0

Dump ship's entire track history